Weather History for Anniston, AL

Change the Weather History Date:

Monday, May 12, 2014

  Actual Average Record
Temperature  
Mean Temperature 77 °F 69 °F  
Max Temperature 86 °F 80 °F 94 °F (1962)
Min Temperature 67 °F 58 °F 39 °F (1960)
Cooling Degree Days 10    
Growing Degree Days 25 (Base 50)    
Moisture  
Dew Point 66 °F    
Average Humidity 71    
Maximum Humidity 93    
Minimum Humidity 48    
Precipitation  
Precipitation 0.00 in 0.14 in 1.71 in (1945)
Month to date precipitation 1.20 1.72  
Year to date precipitation 21.62 20.39  
Sea Level Pressure  
Sea Level Pressure 30.11 in    
Wind  
Wind Speed 4 mph (SSE)    
Max Wind Speed 13 mph    
Max Gust Speed 17 mph    
Visibility 10 miles    
Events Thunderstorm    
T = Trace of Precipitation, MM = Missing Value Source: NWS Daily Summary

Daily Weather History Graph

Daily Weather History Graph

Search for Another Location

Airport:

Trip Planner

Search our weather history database for the weather conditions in past years. The results will help you decide how hot, cold, wet, or windy it might be!

Date:

Astronomy

May. 12, 2014 Rise Set
Actual Time 5:45 AM CDT 7:34 PM CDT
Civil Twilight 5:17 AM CDT 8:02 PM CDT
Nautical Twilight 4:44 AM CDT 8:35 PM CDT
Astronomical Twilight 4:09 AM CDT 9:10 PM CDT
Moon 5:38 PM CDT (5/12) 4:16 AM CDT (5/12)
Length of Visible Light 14h 44m
Length of Day
13h 49m
Waxing Gibbous, 95% of the Moon is Illuminated
May 12
Waxing Gibbous
May 14
Full
May 21
Last Quarter
May 28
New
Jun 5
First Quarter

Hourly Weather History & Observations

Time (CDT) Temp. Heat Index Dew Point Humidity Pressure Visibility Wind Dir Wind Speed Gust Speed Precip Events Conditions
12:53 AM 71.1 °F - 66.9 °F 87% 30.07 in 10.0 mi NNE 3.5 mph - N/A   Clear
1:53 AM 70.0 °F - 66.0 °F 87% 30.07 in 10.0 mi NE 4.6 mph - N/A   Clear
2:53 AM 70.0 °F - 66.0 °F 87% 30.08 in 10.0 mi NE 3.5 mph - N/A   Clear
3:53 AM 68.0 °F - 66.0 °F 93% 30.08 in 9.0 mi NNE 3.5 mph - N/A   Clear
4:53 AM 66.9 °F - 64.9 °F 93% 30.09 in 7.0 mi Calm Calm - N/A   Clear
5:53 AM 66.9 °F - 64.9 °F 93% 30.12 in 7.0 mi Calm Calm - N/A   Clear
6:53 AM 69.1 °F - 66.0 °F 90% 30.14 in 7.0 mi Calm Calm - N/A   Clear
7:53 AM 72.0 °F - 66.9 °F 84% 30.15 in 10.0 mi East 3.5 mph - N/A   Clear
9:21 AM 77.0 °F - 68.0 °F 74% 30.19 in 10.0 mi Calm Calm - N/A   Mostly Cloudy
9:53 AM 78.1 °F - 69.1 °F 74% 30.17 in 10.0 mi SW 5.8 mph - N/A   Scattered Clouds
10:53 AM 82.0 °F 83.8 °F 64.9 °F 56% 30.17 in 10.0 mi SSW 10.4 mph - N/A   Scattered Clouds
11:53 AM 82.0 °F 83.4 °F 64.0 °F 54% 30.16 in 10.0 mi SSW 8.1 mph - N/A   Scattered Clouds
12:53 PM 82.9 °F 84.0 °F 63.0 °F 51% 30.15 in 10.0 mi WSW 9.2 mph - N/A   Scattered Clouds
1:53 PM 84.9 °F 86.1 °F 64.0 °F 49% 30.13 in 10.0 mi South 9.2 mph - N/A   Partly Cloudy
2:53 PM 84.9 °F 86.1 °F 64.0 °F 49% 30.11 in 10.0 mi Variable 3.5 mph - N/A   Clear
3:53 PM 84.9 °F 85.9 °F 63.0 °F 48% 30.09 in 10.0 mi South 6.9 mph - N/A   Partly Cloudy
4:53 PM 84.0 °F 85.4 °F 64.0 °F 51% 30.08 in 10.0 mi SW 8.1 mph - N/A   Clear
5:53 PM 82.9 °F 85.0 °F 66.0 °F 56% 30.07 in 10.0 mi SSW 4.6 mph - N/A   Clear
6:09 PM 82.9 °F 85.4 °F 66.9 °F 58% 30.09 in 10.0 mi SSW 5.8 mph - N/A Thunderstorm Clear
6:28 PM 82.9 °F 85.8 °F 68.0 °F 60% 30.09 in 10.0 mi South 5.8 mph - N/A   Partly Cloudy
6:53 PM 81.0 °F 83.3 °F 66.9 °F 62% 30.07 in 10.0 mi SE 6.9 mph - N/A   Partly Cloudy
7:53 PM 78.1 °F - 66.9 °F 68% 30.07 in 10.0 mi East 3.5 mph - N/A   Clear
8:53 PM 75.0 °F - 66.9 °F 76% 30.08 in 10.0 mi Calm Calm - N/A   Clear
10:53 PM 71.1 °F - 66.9 °F 87% 30.09 in 10.0 mi ENE 4.6 mph - N/A   Clear
11:53 PM 71.1 °F - 66.9 °F 87% 30.09 in 10.0 mi ENE 3.5 mph - N/A   Clear